Regional Weather Roundup
Issued by NWS

Home | Current Version | Previous Version | Graphics & Text | Print | Product List | Glossary On
Versions: 1 2 3 4 5 6 7 8 9 10 11 12 13 14 15 16 17 18 19 20 21 22 23 24 25 26 27 28 29 30 31 32 33 34 35 36 37 38 39 40 41 42 43 44 45 46 47 48 49 50
000
ASUS43 KFSD 261102
RWRSD

WEATHER ROUNDUP FOR SOUTH DAKOTA
NATIONAL WEATHER SERVICE SIOUX FALLS SD
500 AM CST WED NOV 26 2014

NOTE: "FAIR" INDICATES FEW OR NO CLOUDS BELOW 12,000 FEET WITH NO
SIGNIFICANT WEATHER AND/OR OBSTRUCTIONS TO VISIBILITY.


SDZ001>005-009-010-012>017-261200-
NORTHWEST AND NORTH CENTRAL SOUTH DAKOTA

CITY           SKY/WX    TMP DP  RH WIND       PRES   REMARKS
BUFFALO          N/A     25  18  74 N7        30.09F WCI  17
FAITH            N/A     22  17  81 N7        30.20R WCI  13
MOBRIDGE       CLOUDY    16  11  80 N17G24    30.20R WCI   0
$$

SDZ012>016-024>037-041>051-057-063-072>074-261200-
SOUTHWEST AND SOUTH CENTRAL SOUTH DAKOTA

CITY           SKY/WX    TMP DP  RH WIND       PRES   REMARKS
RAPID CTY ARPT CLOUDY    25  21  85 N14       30.17R WCI  13
PIERRE         CLOUDY    21  16  81 N24G32    30.16R WCI   4
CUSTER         MOCLDY    21  13  71 NW6       30.05S WCI  13
ELLSWORTH AFB  CLOUDY    26  22  85 N12       30.16R WCI  15
PHILIP         CLOUDY    25  19  78 N8        30.21R WCI  16
PINE RIDGE     CLOUDY    26  20  77 N13G23    30.17R WCI  15
WINNER         CLOUDY    24  20  84 N28G33    30.12R WCI   7
$$

SDZ004>011-016>023-039-040-261200-
NORTHEAST SOUTH DAKOTA

CITY           SKY/WX    TMP DP  RH WIND       PRES   REMARKS
ABERDEEN       MOCLDY    13   8  81 N22       30.18R WCI  -6
WATERTOWN      CLOUDY    20  16  84 N23       30.01R WCI   3
SISSETON         N/A     16  14  92 N21       30.13R WCI  -1
$$

SDZ017-020-022-023-036>040-048>070-261200-
SOUTHEAST SOUTH DAKOTA

CITY           SKY/WX    TMP DP  RH WIND       PRES   REMARKS
SIOUX FALLS    LGT SNOW  29  27  92 N10       29.89R FOG     WCI  20
HURON          LGT SNOW  23  20  88 N21G30    30.07R FOG     WCI   8
MITCHELL       LGT SNOW  29  27  92 N29G36    29.99R VSB 1   WCI  14
YANKTON        CLOUDY    36  30  80 NW21      29.91R
$$

ABBREVIATIONS USED IN REMARKS
   TC - TEMPERATURE IN CELSIUS
  WCI - WIND CHILL INDEX
   HX - HEAT INDEX
  VSB - VISIBILITY



USA.gov is the U.S. government's official web portal to all federal, state and local government web resources and services.